Find Starlink 36847

NORAD ID: 67910 Int'l Des: 2026-036 Owner: SPXS Country: US Constellation: starlink operational
LEOCIRCULAR

Current View

Loading 3D Globe...

About Starlink 36847

Description loading...

Upcoming Passes

Passes for default location (London). Set your location on the main map for personalized predictions.

Altitude History

Loading altitude history...

Two-Line Element Set

1 67910U 26036G 26146.06068163 .00019261 00000-0 70676-3 0 9997
2 67910 43.0020 168.4339 0001557 272.2970 87.7703 15.27619954 15552
Epoch: May 26, 2026 • Age: 12 hours

Current Status

Altitude 495.0 km
Velocity 7.62 km/s
Sub-Earth Point -42.85°S, 4.76°W
Launch Date Feb 22, 2026
Age 0.2 years
Type internet

Technical Details

Classification Payload
Mass 575.00 kg
Dry Mass 530.00 kg
Total Mass 575.00 kg
Length 0.30 m
Diameter 4.10 m
Span 29.00 m
Shape Box + pan
Manufacturer SPXS
Bus Type Starlink V2MO
Phase Status In Orbit
Owner/State SPXS/US

Most Searched